Location: Belfast
(54.5830°N, 5.9330°W)
Time: 03:18:06
(UTC+00:00)

ISS - Pass Details

Date: 25 January 2021
Orbit: 417 x 422 km, 51.6° (Epoch: 26 February)

Event Time Altitude Azimuth Distance (km) Brightness Sun altitude
Rises 18:26:52 0° 241° (WSW) 2,372 1.7 -13.9°
Reaches altitude 10° 18:29:02 10° 234° (SW) 1,510 0.2 -14.2°
Maximum altitude 18:32:13 39° 164° (SSE) 656 -2.9 -14.6°
Enters shadow 18:33:36 26° 114° (ESE) 880 -2.6 -14.8°
